| time (UTC) | temp F | wind direction | speed MPH | gust MPH | rain 1hr in | rain 24hr in | rain mn in | humidity % | barometer mb |
| 20260510234315 | 53 | 302 | 3.0 | 8.0 | 0.00 | 0.00 | 0.00 | 84 | 1005.1 |
| 20260510233315 | 54 | 302 | 4.0 | 9.0 | 0.00 | 0.00 | 0.00 | 83 | 1005.3 |
| 20260510232315 | 54 | 315 | 3.0 | 7.0 | 0.00 | 0.00 | 0.00 | 82 | 1005.4 |
| 20260510231315 | 54 | 292 | 2.0 | 7.0 | 0.00 | 0.00 | 0.00 | 82 | 1005.6 |
| 20260510230315 | 55 | 290 | 2.0 | 6.0 | 0.00 | 0.00 | 0.00 | 81 | 1005.7 |
| 20260510225315 | 55 | 284 | 3.0 | 9.0 | 0.00 | 0.00 | 0.00 | 80 | 1005.8 |
| 20260510224315 | 55 | 311 | 3.0 | 7.0 | 0.00 | 0.00 | 0.00 | 80 | 1006.0 |
| 20260510223315 | 55 | 297 | 2.0 | 5.0 | 0.00 | 0.00 | 0.00 | 80 | 1006.2 |
| 20260510222315 | 56 | 321 | 2.0 | 6.0 | 0.00 | 0.00 | 0.00 | 79 | 1006.3 |
| 20260510221315 | 56 | 333 | 1.0 | 3.0 | 0.00 | 0.00 | 0.00 | 79 | 1006.4 |
| 20260510220316 | 56 | 338 | 1.0 | 3.0 | 0.00 | 0.00 | 0.00 | 79 | 1006.5 |
| 20260510215316 | 56 | 317 | 0.0 | 3.0 | 0.00 | 0.00 | 0.00 | 79 | 1006.6 |
| 20260510214316 | 56 | 305 | 0.0 | 4.0 | 0.00 | 0.00 | 0.00 | 79 | 1006.7 |
| 20260510213316 | 56 | 137 | 1.0 | 0.0 | 0.00 | 0.00 | 0.00 | 80 | 1007.0 |
| 20260510212316 | 56 | 70 | 1.0 | 4.0 | 0.00 | 0.00 | 0.00 | 81 | 1007.1 |
| 20260510211316 | 56 | 15 | 0.0 | 0.0 | 0.00 | 0.00 | 0.00 | 83 | 1007.1 |
| 20260510210316 | 56 | 15 | 0.0 | 1.0 | 0.00 | 0.00 | 0.00 | 84 | 1007.2 |
| 20260510205316 | 56 | 17 | 0.0 | 2.0 | 0.00 | 0.00 | 0.00 | 84 | 1007.2 |
| 20260510204316 | 57 | 355 | 0.0 | 0.0 | 0.00 | 0.00 | 0.00 | 84 | 1007.3 |
| 20260510203316 | 57 | 315 | 0.0 | 0.0 | 0.00 | 0.00 | 0.00 | 83 | 1007.4 |
| 20260510202316 | 58 | 315 | 0.0 | 2.0 | 0.00 | 0.00 | 0.00 | 82 | 1007.5 |
| 20260510201316 | 59 | 290 | 1.0 | 2.0 | 0.00 | 0.00 | 0.00 | 81 | 1007.6 |
| 20260510200316 | 59 | 290 | 0.0 | 2.0 | 0.00 | 0.00 | 0.00 | 81 | 1007.6 |
| 20260510195316 | 60 | 290 | 0.0 | 0.0 | 0.00 | 0.00 | 0.00 | 81 | 1007.6 |
| 20260510194316 | 60 | 290 | 1.0 | 2.0 | 0.00 | 0.00 | 0.00 | 81 | 1007.7 |
| 20260510193316 | 60 | 291 | 1.0 | 4.0 | 0.00 | 0.00 | 0.00 | 80 | 1007.7 |
| 20260510192316 | 61 | 275 | 1.0 | 3.0 | 0.00 | 0.00 | 0.00 | 80 | 1007.7 |
| 20260510191316 | 61 | 273 | 2.0 | 2.0 | 0.00 | 0.00 | 0.00 | 79 | 1007.7 |
| 20260510190316 | 62 | 270 | 1.0 | 3.0 | 0.00 | 0.00 | 0.00 | 77 | 1007.8 |
| 20260510185316 | 63 | 5 | 0.0 | 1.0 | 0.00 | 0.00 | 0.00 | 75 | 1007.7 |
| 20260510184316 | 64 | 5 | 1.0 | 3.0 | 0.00 | 0.00 | 0.00 | 72 | 1007.8 |
| 20260510183316 | 64 | 11 | 0.0 | 3.0 | 0.00 | 0.00 | 0.00 | 71 | 1007.8 |
| 20260510182316 | 64 | 338 | 0.0 | 1.0 | 0.00 | 0.00 | 0.00 | 72 | 1007.9 |
| 20260510181316 | 64 | 317 | 2.0 | 3.0 | 0.00 | 0.00 | 0.00 | 72 | 1007.9 |
| 20260510180316 | 65 | 225 | 3.0 | 8.0 | 0.00 | 0.00 | 0.00 | 71 | 1007.8 |
| 20260510175316 | 65 | 324 | 2.0 | 4.0 | 0.00 | 0.00 | 0.00 | 71 | 1007.9 |
| 20260510174316 | 65 | 327 | 4.0 | 6.0 | 0.00 | 0.00 | 0.00 | 70 | 1007.9 |
| 20260510173316 | 65 | 335 | 3.0 | 4.0 | 0.00 | 0.00 | 0.00 | 69 | 1007.9 |
| 20260510172316 | 65 | 315 | 3.0 | 8.0 | 0.00 | 0.00 | 0.00 | 68 | 1008.1 |
| 20260510171316 | 65 | 321 | 2.0 | 4.0 | 0.00 | 0.00 | 0.00 | 67 | 1008.1 |
| 20260510170316 | 65 | 329 | 1.0 | 4.0 | 0.00 | 0.00 | 0.00 | 68 | 1008.2 |
| 20260510165316 | 66 | 309 | 1.0 | 4.0 | 0.00 | 0.00 | 0.00 | 67 | 1008.4 |
| 20260510164316 | 66 | 339 | 1.0 | 2.0 | 0.00 | 0.00 | 0.00 | 65 | 1008.4 |
| 20260510163316 | 66 | 325 | 1.0 | 3.0 | 0.00 | 0.00 | 0.00 | 64 | 1008.5 |
| 20260510162317 | 66 | 326 | 2.0 | 4.0 | 0.00 | 0.00 | 0.00 | 61 | 1008.5 |
| 20260510161316 | 67 | 348 | 2.0 | 4.0 | 0.00 | 0.00 | 0.00 | 62 | 1008.7 |
| 20260510160316 | 67 | 338 | 3.0 | 6.0 | 0.00 | 0.00 | 0.00 | 60 | 1008.8 |
| 20260510155316 | 67 | 9 | 2.0 | 5.0 | 0.00 | 0.00 | 0.00 | 59 | 1008.8 |
| 20260510154316 | 67 | 321 | 2.0 | 5.0 | 0.00 | 0.00 | 0.00 | 61 | 1008.9 |
| 20260510153316 | 67 | 326 | 2.0 | 3.0 | 0.00 | 0.00 | 0.00 | 59 | 1009.0 |
| 20260510152316 | 68 | 325 | 2.0 | 5.0 | 0.00 | 0.00 | 0.00 | 56 | 1009.1 |
| 20260510151316 | 68 | 319 | 2.0 | 4.0 | 0.00 | 0.00 | 0.00 | 52 | 1009.3 |
| 20260510150316 | 69 | 313 | 2.0 | 6.0 | 0.00 | 0.00 | 0.00 | 51 | 1009.3 |
| 20260510145316 | 69 | 298 | 3.0 | 5.0 | 0.00 | 0.00 | 0.00 | 52 | 1009.4 |
| 20260510144317 | 68 | 230 | 2.0 | 7.0 | 0.00 | 0.00 | 0.00 | 52 | 1009.7 |
| 20260510143317 | 68 | 329 | 3.0 | 5.0 | 0.00 | 0.00 | 0.00 | 53 | 1009.9 |
| 20260510142317 | 68 | 338 | 3.0 | 4.0 | 0.00 | 0.00 | 0.00 | 52 | 1010.0 |
| 20260510141317 | 68 | 325 | 3.0 | 4.0 | 0.00 | 0.00 | 0.00 | 52 | 1010.1 |
| 20260510140317 | 69 | 342 | 3.0 | 6.0 | 0.00 | 0.00 | 0.00 | 50 | 1010.3 |
| 20260510135317 | 69 | 330 | 3.0 | 6.0 | 0.00 | 0.00 | 0.00 | 51 | 1010.4 |
| 20260510134317 | 68 | 348 | 3.0 | 8.0 | 0.00 | 0.00 | 0.00 | 50 | 1010.5 |
| 20260510133317 | 68 | 336 | 2.0 | 3.0 | 0.00 | 0.00 | 0.00 | 51 | 1010.5 |
| 20260510132317 | 68 | 338 | 2.0 | 4.0 | 0.00 | 0.00 | 0.00 | 50 | 1010.6 |
| 20260510131317 | 69 | 5 | 1.0 | 4.0 | 0.00 | 0.00 | 0.00 | 54 | 1010.8 |
| 20260510130317 | 68 | 333 | 2.0 | 4.0 | 0.00 | 0.00 | 0.00 | 55 | 1011.0 |
| 20260510125317 | 68 | 11 | 3.0 | 4.0 | 0.00 | 0.00 | 0.00 | 57 | 1011.0 |
| 20260510124317 | 69 | 334 | 2.0 | 4.0 | 0.00 | 0.00 | 0.00 | 55 | 1011.0 |
| 20260510123317 | 69 | 256 | 3.0 | 8.0 | 0.00 | 0.00 | 0.00 | 53 | 1011.2 |
| 20260510122317 | 69 | 280 | 4.0 | 8.0 | 0.00 | 0.00 | 0.00 | 53 | 1011.3 |
| 20260510121317 | 68 | 234 | 3.0 | 4.0 | 0.00 | 0.00 | 0.00 | 57 | 1011.3 |
| 20260510120317 | 67 | 246 | 3.0 | 7.0 | 0.00 | 0.00 | 0.00 | 57 | 1011.5 |
| 20260510115317 | 67 | 315 | 3.0 | 7.0 | 0.00 | 0.00 | 0.00 | 56 | 1011.7 |
| 20260510114317 | 67 | 321 | 2.0 | 4.0 | 0.00 | 0.00 | 0.00 | 58 | 1011.7 |
| 20260510113317 | 67 | 347 | 2.0 | 3.0 | 0.00 | 0.00 | 0.00 | 58 | 1011.8 |
| 20260510112317 | 66 | 101 | 2.0 | 6.0 | 0.00 | 0.00 | 0.00 | 59 | 1011.9 |
| 20260510111317 | 66 | 36 | 2.0 | 7.0 | 0.00 | 0.00 | 0.00 | 60 | 1012.1 |
| 20260510110317 | 66 | 42 | 2.0 | 3.0 | 0.00 | 0.00 | 0.00 | 61 | 1012.2 |
| 20260510105317 | 65 | 315 | 1.0 | 5.0 | 0.00 | 0.00 | 0.00 | 60 | 1012.3 |
| 20260510104317 | 65 | 36 | 2.0 | 5.0 | 0.00 | 0.00 | 0.00 | 61 | 1012.4 |
| 20260510103317 | 65 | 226 | 2.0 | 4.0 | 0.00 | 0.00 | 0.00 | 63 | 1012.5 |
| 20260510102317 | 65 | 26 | 2.0 | 7.0 | 0.00 | 0.00 | 0.00 | 64 | 1012.6 |
| 20260510101317 | 64 | 296 | 2.0 | 4.0 | 0.00 | 0.00 | 0.00 | 64 | 1012.7 |
| 20260510100317 | 64 | 46 | 2.0 | 6.0 | 0.00 | 0.00 | 0.00 | 67 | 1012.8 |
| 20260510095317 | 64 | 49 | 2.0 | 5.0 | 0.00 | 0.00 | 0.00 | 67 | 1012.8 |
| 20260510094317 | 63 | 34 | 3.0 | 5.0 | 0.00 | 0.00 | 0.00 | 70 | 1013.0 |
| 20260510093317 | 63 | 309 | 2.0 | 4.0 | 0.00 | 0.00 | 0.00 | 69 | 1013.2 |
| 20260510092317 | 62 | 37 | 1.0 | 3.0 | 0.00 | 0.00 | 0.00 | 71 | 1013.1 |
| 20260510091317 | 61 | 53 | 2.0 | 3.0 | 0.00 | 0.00 | 0.00 | 75 | 1013.2 |
| 20260510090317 | 60 | 42 | 3.0 | 6.0 | 0.00 | 0.00 | 0.00 | 72 | 1013.4 |
| 20260510085317 | 60 | 0 | 2.0 | 4.0 | 0.00 | 0.00 | 0.00 | 74 | 1013.4 |
| 20260510084317 | 59 | 79 | 2.0 | 8.0 | 0.00 | 0.00 | 0.00 | 73 | 1013.5 |
| 20260510083317 | 59 | 5 | 2.0 | 5.0 | 0.00 | 0.00 | 0.00 | 75 | 1013.6 |
| 20260510082317 | 58 | 46 | 2.0 | 5.0 | 0.00 | 0.00 | 0.00 | 76 | 1013.6 |
| 20260510081317 | 58 | 34 | 3.0 | 6.0 | 0.00 | 0.00 | 0.00 | 76 | 1013.6 |
| 20260510080317 | 57 | 17 | 1.0 | 3.0 | 0.00 | 0.00 | 0.00 | 76 | 1013.7 |
| 20260510075317 | 56 | 87 | 0.0 | 4.0 | 0.00 | 0.00 | 0.00 | 76 | 1013.8 |
| 20260510074317 | 56 | 33 | 0.0 | 2.0 | 0.00 | 0.00 | 0.00 | 77 | 1013.8 |
| 20260510073317 | 55 | 178 | 1.0 | 3.0 | 0.00 | 0.00 | 0.00 | 78 | 1014.0 |
| 20260510072318 | 54 | 210 | 0.0 | 0.0 | 0.00 | 0.00 | 0.00 | 79 | 1014.0 |
| 20260510071317 | 54 | 207 | 0.0 | 0.0 | 0.00 | 0.00 | 0.00 | 80 | 1014.1 |
| 20260510070318 | 53 | 204 | 1.0 | 3.0 | 0.00 | 0.00 | 0.00 | 80 | 1014.3 |
| 20260510065318 | 53 | 311 | 1.0 | 3.0 | 0.00 | 0.00 | 0.00 | 80 | 1014.3 |
| 20260510064318 | 52 | 346 | 1.0 | 2.0 | 0.00 | 0.00 | 0.00 | 81 | 1014.4 |
| 20260510063318 | 51 | 291 | 0.0 | 2.0 | 0.00 | 0.00 | 0.00 | 83 | 1014.3 |
| 20260510062318 | 51 | 291 | 1.0 | 3.0 | 0.00 | 0.00 | 0.00 | 84 | 1014.3 |
| 20260510061318 | 51 | 16 | 1.0 | 3.0 | 0.00 | 0.00 | 0.00 | 84 | 1014.4 |
| 20260510060318 | 51 | 16 | 1.0 | 3.0 | 0.00 | 0.00 | 0.00 | 85 | 1014.5 |
| 20260510055318 | 50 | 22 | 1.0 | 3.0 | 0.00 | 0.00 | 0.00 | 86 | 1014.5 |
| 20260510054318 | 48 | 45 | 0.0 | 0.0 | 0.00 | 0.00 | 0.00 | 87 | 1014.5 |
| 20260510053318 | 48 | 271 | 0.0 | 2.0 | 0.00 | 0.00 | 0.00 | 86 | 1014.6 |
| 20260510052318 | 47 | 257 | 0.0 | 0.0 | 0.00 | 0.00 | 0.00 | 86 | 1014.7 |
| 20260510051318 | 46 | 253 | 0.0 | 0.0 | 0.00 | 0.00 | 0.00 | 84 | 1014.6 |
| 20260510050318 | 44 | 252 | 0.0 | 0.0 | 0.00 | 0.00 | 0.00 | 85 | 1014.7 |
| 20260510045318 | 44 | 253 | 0.0 | 0.0 | 0.00 | 0.00 | 0.00 | 85 | 1014.7 |
| 20260510044318 | 43 | 254 | 0.0 | 0.0 | 0.00 | 0.00 | 0.00 | 86 | 1014.8 |
| 20260510043318 | 44 | 155 | 0.0 | 0.0 | 0.00 | 0.00 | 0.00 | 86 | 1014.8 |
| 20260510042318 | 44 | 155 | 0.0 | 0.0 | 0.00 | 0.00 | 0.00 | 86 | 1014.8 |
| 20260510041318 | 44 | 154 | 1.0 | 3.0 | 0.00 | 0.00 | 0.00 | 85 | 1014.8 |
| 20260510040318 | 44 | 188 | 1.0 | 1.0 | 0.00 | 0.00 | 0.00 | 86 | 1014.9 |
| 20260510035318 | 43 | 187 | 1.0 | 3.0 | 0.00 | 0.00 | 0.00 | 86 | 1014.9 |
| 20260510034318 | 44 | 231 | 1.0 | 4.0 | 0.00 | 0.00 | 0.00 | 87 | 1015.1 |
| 20260510033318 | 44 | 138 | 0.0 | 0.0 | 0.00 | 0.01 | 0.00 | 86 | 1014.9 |
| 20260510032318 | 44 | 138 | 0.0 | 0.0 | 0.00 | 0.01 | 0.00 | 86 | 1015.2 |
| 20260510031318 | 44 | 137 | 0.0 | 0.0 | 0.00 | 0.01 | 0.00 | 87 | 1015.1 |
| 20260510030318 | 44 | 137 | 1.0 | 1.0 | 0.00 | 0.01 | 0.00 | 87 | 1015.1 |
| 20260510025318 | 45 | 120 | 1.0 | 3.0 | 0.00 | 0.01 | 0.00 | 86 | 1015.2 |
| 20260510024318 | 44 | 157 | 0.0 | 0.0 | 0.00 | 0.01 | 0.00 | 87 | 1015.2 |
| 20260510023318 | 45 | 157 | 0.0 | 1.0 | 0.00 | 0.01 | 0.00 | 87 | 1015.4 |
| 20260510022318 | 45 | 73 | 0.0 | 2.0 | 0.00 | 0.01 | 0.00 | 87 | 1015.4 |
| 20260510021318 | 45 | 325 | 0.0 | 0.0 | 0.00 | 0.01 | 0.00 | 87 | 1015.5 |
| 20260510020318 | 45 | 325 | 0.0 | 0.0 | 0.00 | 0.01 | 0.00 | 87 | 1015.5 |
| 20260510015318 | 45 | 325 | 0.0 | 0.0 | 0.00 | 0.01 | 0.00 | 87 | 1015.7 |
| 20260510014318 | 45 | 325 | 0.0 | 0.0 | 0.00 | 0.01 | 0.00 | 86 | 1015.7 |
| 20260510013318 | 46 | 325 | 0.0 | 0.0 | 0.00 | 0.01 | 0.00 | 86 | 1015.8 |
| 20260510012318 | 47 | 325 | 0.0 | 0.0 | 0.00 | 0.01 | 0.00 | 85 | 1015.8 |
| 20260510011318 | 47 | 24 | 1.0 | 2.0 | 0.00 | 0.01 | 0.00 | 85 | 1015.8 |
| 20260510010318 | 47 | 58 | 1.0 | 4.0 | 0.00 | 0.01 | 0.00 | 84 | 1015.8 |
| 20260510005318 | 48 | 95 | 3.0 | 8.0 | 0.00 | 0.01 | 0.00 | 84 | 1015.7 |
| 20260510004318 | 48 | 65 | 4.0 | 8.0 | 0.00 | 0.01 | 0.00 | 84 | 1015.8 |
| 20260510003318 | 48 | 73 | 3.0 | 8.0 | 0.00 | 0.01 | 0.00 | 84 | 1015.9 |
| 20260510002318 | 48 | 89 | 3.0 | 7.0 | 0.00 | 0.01 | 0.00 | 84 | 1016.2 |
| 20260510001318 | 48 | 84 | 3.0 | 5.0 | 0.00 | 0.01 | 0.00 | 84 | 1016.5 |
| 20260510000319 | 48 | 77 | 3.0 | 5.0 | 0.00 | 0.01 | 0.00 | 84 | 1016.6 |
| 20260509235319 | 48 | 98 | 4.0 | 9.0 | 0.00 | 0.01 | 0.00 | 84 | 1016.5 |